Regional Weather Roundup
Issued by NWS Kansas City/Pleasant Hill, MO

Home | Current Version | Previous Version | Text Only | Print | Product List | Glossary On
Versions: 1 2 3 4 5 6 7 8 9 10 11 12 13 14 15 16 17 18 19 20 21 22 23 24 25 26 27 28 29 30 31 32 33 34 35 36 37 38 39 40 41 42 43 44 45 46 47 48 49 50
000
ASUS43 KEAX 300611
RWREAX

WEATHER ROUNDUP FOR EASTERN KANSAS AND NORTHWEST MISSOURI
NATIONAL WEATHER SERVICE KANSAS CITY/PLEASANT HILL MO
100 AM CDT SAT AUG 30 2014

KSZ040-057-103>105-MOZ028-029-037-043-300700-
...KANSAS CITY METROPOLITAN AREA...

CITY           SKY/WX    TMP DP  RH WIND       PRES   REMARKS
K.C. INTL      MOCLDY    71  68  90 SW9       29.88R
6HR MIN TEMP:  69; 6HR MAX TEMP:  77; 6HR PCP:  1.48;

K.C. DOWNTOWN  MOCLDY    73  70  90 CALM      29.87R
6HR MIN TEMP:  70; 6HR MAX TEMP:  83; 6HR PCP:  0.48;

LEES SUMMIT    FAIR      74  66  76 SW8       29.90R
6HR MIN TEMP:  71; 6HR MAX TEMP:  82; 6HR PCP:  0.22;

OLATHE - IXD   FAIR      75  66  73 SW13      29.90R
6HR MIN TEMP:  73; 6HR MAX TEMP:  84;

OLATHE - OJC   FAIR      75  65  70 SW7       29.89R
6HR MIN TEMP:  72; 6HR MAX TEMP:  81;

LAWRENCE       MOCLDY    74  67  78 N6        29.88R

$$

MOZ001>008-011>017-020>025-030>033-038>040-044>046-053-054-300700-
...NORTHERN AND CENTRAL MISSOURI...

CITY           SKY/WX    TMP DP  RH WIND       PRES   REMARKS
ST. JOSEPH     FAIR      68  66  93 S3        29.86R
6HR MIN TEMP:  68; 6HR MAX TEMP:  80;

MOSBY          MOCLDY    72  66  83 S12G22    29.87F
WHITEMAN AFB   FAIR      72  67  86 SW9       29.90R
6HR MIN TEMP:  71; 6HR MAX TEMP:  80;

CLINTON        FAIR      75  66  73 S6        29.92R
SEDALIA        FAIR      75  67  76 S10       29.91R
6HR MIN TEMP:  74; 6HR MAX TEMP:  82;

WARSAW         NOT AVBL
MARSHALL       MOCLDY    75  72  88 SW5       29.90R
CHILLICOTHE      N/A     72  67  84 VRB7      29.88R
6HR MIN TEMP:  71; 6HR MAX TEMP:  79; 6HR PCP:  0.04;

MOBERLY        FAIR      73  68  83 SW9       29.89R
KIRKSVILLE     FAIR      72  69  90 S9        29.87R
6HR MIN TEMP:  69; 6HR MAX TEMP:  78; 6HR PCP: TRACE;


$$

MOZ041-047>049-056>058-063>065-088>090-097-300700-
...EASTERN AND SOUTHERN MISSOURI...

CITY           SKY/WX    TMP DP  RH WIND       PRES   REMARKS
ST. LOUIS INTL CLOUDY    79  69  71 S8        29.92S
6HR MIN TEMP:  78; 6HR MAX TEMP:  86; 6HR PCP: TRACE;

SPIRIT OF STL  FAIR      77  68  73 S5        29.90S
COLUMBIA       FAIR      71  69  93 S9        29.92R
JEFFERSON CITY FAIR      73  68  84 S3        29.91R
MEXICO         FAIR     N/A N/A N/A S8        29.90R
HANNIBAL       FAIR      73  70  88 S7        29.88S
ROLLA          FAIR      71  66  84 S10       29.94S
LEBANON        FAIR      70  66  88 S7        29.96S
OSAGE BEACH    FAIR      72  66  83 S7        29.94R
SPRINGFIELD    FAIR      73  68  84 S14       29.96R
BRANSON        FAIR      72  68  88 CALM      29.99S
NEVADA         MOCLDY    72  66  83 S5        29.94R
JOPLIN         MOCLDY    75  67  76 S13       29.94R
WEST PLAINS    CLOUDY    72  68  87 S6        30.01R

$$

IAZ060-094-KSZ022-034>040-054-083-096-NEZ052-066-093-300700-
...KANSAS...SOUTHEAST NEBRASKA AND IOWA...

CITY           SKY/WX    TMP DP  RH WIND       PRES   REMARKS
TOPEKA         FAIR      74  70  87 SW5       29.87F
6HR MIN TEMP:  72; 6HR MAX TEMP:  80; 6HR PCP:  0.08;

MANHATTAN      FAIR      72  66  81 W7        29.89R
EMPORIA        FAIR      70  66  87 SW5       29.90S
CHANUTE        FAIR      72  67  84 S7        29.91S
WICHITA        FAIR      69  66  90 S3        29.92R
OMAHA          FAIR      67  64  90 CALM      29.84R
LINCOLN        FAIR      67  65  93 W5        29.87R
FALLS CITY     FAIR      69  67  93 W3        29.85S
LAMONI         MOCLDY    65  64  97 S7        29.84S
DES MOINES     CLOUDY    69  67  93 SW9       29.80F

$$



USA.gov is the U.S. government's official web portal to all federal, state and local government web resources and services.